EW3043 Weather Reports


Display with metric or nautical units.
time (UTC)temp
F
wind
direction
speed
MPH
gust
MPH
rain 1hr
in
rain 24hr
in
rain mn
in
humidity
%
barometer
mb
20260508044132 55 252 1.0 2.0 0.00 0.00 0.00 42 1023.5
20260508043630 55 245 1.0 2.0 0.00 0.00 0.00 42 1023.4
20260508043205 55 253 1.0 2.0 0.00 0.00 0.00 42 1023.4
20260508042642 55 254 1.0 2.0 0.00 0.00 0.00 42 1023.4
20260508042140 55 259 1.0 2.0 0.00 0.00 0.00 42 1023.3
20260508041637 55 252 0.0 2.0 0.00 0.00 0.00 42 1023.2
20260508041135 55 238 1.0 3.0 0.00 0.00 0.00 42 1023.1
20260508040633 55 252 0.0 3.0 0.00 0.00 0.00 41 1023.1
20260508040131 55 250 1.0 3.0 0.00 0.00 0.00 41 1023.1
20260508035631 55 262 0.0 3.0 0.00 0.00 0.00 41 1023.1
20260508035129 55 253 1.0 2.0 0.00 0.00 0.00 41 1023.1
20260508034647 55 255 0.0 2.0 0.00 0.00 0.00 40 1023.0
20260508034145 55 256 1.0 2.0 0.00 0.00 0.00 39 1022.9
20260508033626 55 256 0.0 2.0 0.00 0.00 0.00 39 1022.9
20260508033145 55 257 0.0 2.0 0.00 0.00 0.00 38 1022.9
20260508032642 55 252 0.0 1.0 0.00 0.00 0.00 37 1022.8
20260508032140 54 250 0.0 3.0 0.00 0.00 0.00 37 1022.7
20260508031637 54 248 1.0 3.0 0.00 0.00 0.00 37 1022.7
20260508031134 54 242 0.0 2.0 0.00 0.00 0.00 37 1022.6
20260508030632 54 252 0.0 1.0 0.00 0.00 0.00 36 1022.6
20260508030129 55 252 0.0 1.0 0.00 0.00 0.00 35 1022.6
20260508025630 55 280 0.0 1.0 0.00 0.00 0.00 35 1022.6
20260508025128 55 280 0.0 1.0 0.00 0.00 0.00 34 1022.6
20260508024625 56 189 0.0 2.0 0.00 0.00 0.00 31 1022.6
20260508024204 56 247 0.0 6.0 0.00 0.00 0.00 31 1022.5
20260508023641 56 245 1.0 6.0 0.00 0.00 0.00 30 1022.4
20260508023159 57 262 0.0 4.0 0.00 0.00 0.00 30 1022.4
20260508022636 57 261 1.0 4.0 0.00 0.00 0.00 29 1022.4
20260508022134 57 259 1.0 3.0 0.00 0.00 0.00 29 1022.4
20260508021632 57 255 1.0 3.0 0.00 0.00 0.00 29 1022.2
20260508021149 58 256 1.0 3.0 0.00 0.00 0.00 29 1022.2
20260508020630 58 247 1.0 3.0 0.00 0.00 0.00 29 1022.3
20260508020127 58 264 1.0 3.0 0.00 0.00 0.00 30 1022.3
20260508015706 59 245 1.0 3.0 0.00 0.00 0.00 31 1022.3
20260508015144 59 264 1.0 3.0 0.00 0.00 0.00 31 1022.2
20260508014641 59 258 1.0 3.0 0.00 0.00 0.00 31 1022.3
20260508014140 59 250 0.0 4.0 0.00 0.00 0.00 31 1022.2
20260508013637 59 248 1.0 7.0 0.00 0.00 0.00 31 1022.2
20260508013155 60 221 1.0 7.0 0.00 0.00 0.00 30 1022.2
20260508012631 60 245 1.0 7.0 0.00 0.00 0.00 30 1022.2
20260508012130 60 245 2.0 7.0 0.00 0.00 0.00 30 1022.1
20260508011627 60 243 1.0 3.0 0.00 0.00 0.00 30 1022.1
20260508011126 61 254 1.0 3.0 0.00 0.00 0.00 32 1022.2
20260508010644 61 173 1.0 3.0 0.00 0.00 0.00 32 1022.2
20260508010141 61 231 2.0 5.0 0.00 0.00 0.00 29 1022.1
20260508005640 61 235 1.0 5.0 0.00 0.00 0.00 28 1022.1
20260508005158 62 247 1.0 4.0 0.00 0.00 0.00 29 1022.2
20260508004635 62 252 1.0 3.0 0.00 0.00 0.00 29 1022.2
20260508004133 63 241 1.0 3.0 0.00 0.00 0.00 28 1022.2
20260508003652 63 245 0.0 3.0 0.00 0.00 0.00 28 1022.1
20260508003133 63 247 0.0 5.0 0.00 0.00 0.00 28 1022.2
20260508002630 63 220 0.0 5.0 0.00 0.00 0.00 29 1022.1
20260508002128 64 274 1.0 3.0 0.00 0.00 0.00 30 1022.0
20260508001646 64 251 1.0 6.0 0.00 0.00 0.00 29 1022.2
20260508001144 64 260 1.0 6.0 0.00 0.00 0.00 29 1022.1
20260508000642 64 248 1.0 6.0 0.00 0.00 0.00 30 1022.1
20260508000139 64 174 2.0 6.0 0.00 0.00 0.00 29 1022.1
20260507235637 64 228 1.0 6.0 0.00 0.00 0.00 28 1022.1
20260507235135 65 245 2.0 6.0 0.00 0.00 0.00 29 1022.1
20260507234653 66 259 1.0 3.0 0.00 0.00 0.00 30 1022.1
20260507234130 66 162 0.0 2.0 0.00 0.00 0.00 29 1022.0
20260507233648 66 250 1.0 4.0 0.00 0.00 0.00 28 1022.0
20260507233145 66 297 1.0 4.0 0.00 0.00 0.00 28 1021.9
20260507232644 66 251 1.0 5.0 0.00 0.00 0.00 29 1022.0
20260507232142 66 229 2.0 7.0 0.00 0.00 0.00 28 1021.9
20260507231640 66 254 1.0 7.0 0.00 0.00 0.00 28 1021.8
20260507231138 67 302 1.0 5.0 0.00 0.00 0.00 28 1021.9
20260507230639 67 238 2.0 6.0 0.00 0.00 0.00 28 1021.9
20260507230137 68 295 2.0 6.0 0.00 0.00 0.00 28 1021.9
20260507225656 68 285 1.0 3.0 0.00 0.00 0.00 28 1021.9
20260507225133 68 233 1.0 5.0 0.00 0.00 0.00 28 1021.9
20260507224630 68 295 1.0 5.0 0.00 0.00 0.00 27 1022.0
20260507224129 69 351 1.0 3.0 0.00 0.00 0.00 27 1022.1
20260507223627 69 235 1.0 3.0 0.00 0.00 0.00 27 1022.0
20260507223145 69 253 0.0 4.0 0.00 0.00 0.00 28 1022.1
20260507222643 69 37 1.0 4.0 0.00 0.00 0.00 28 1022.1
20260507222141 69 87 1.0 4.0 0.00 0.00 0.00 26 1022.2
20260507221638 69 268 1.0 4.0 0.00 0.00 0.00 26 1022.2
20260507221137 69 328 1.0 2.0 0.00 0.00 0.00 27 1022.3
20260507220634 68 76 0.0 4.0 0.00 0.00 0.00 20 1022.4
20260507220132 68 48 1.0 6.0 0.00 0.00 0.00 20 1022.4
20260507215632 68 20 2.0 6.0 0.00 0.00 0.00 19 1022.4
20260507215134 68 30 3.0 4.0 0.00 0.00 0.00 20 1022.4
20260507214632 69 79 2.0 4.0 0.00 0.00 0.00 19 1022.5
20260507214131 68 287 0.0 3.0 0.00 0.00 0.00 20 1022.6
20260507213709 68 58 1.0 5.0 0.00 0.00 0.00 19 1022.7
20260507213142 67 64 3.0 7.0 0.00 0.00 0.00 20 1022.7
20260507212641 68 39 4.0 7.0 0.00 0.00 0.00 20 1022.7
20260507212138 67 108 1.0 7.0 0.00 0.00 0.00 21 1022.7
20260507211636 67 55 4.0 7.0 0.00 0.00 0.00 21 1022.9
20260507211134 67 52 3.0 6.0 0.00 0.00 0.00 21 1022.8
20260507210652 67 60 3.0 6.0 0.00 0.00 0.00 20 1022.9
20260507210129 67 41 3.0 8.0 0.00 0.00 0.00 21 1023.0
20260507205647 67 27 3.0 8.0 0.00 0.00 0.00 21 1023.0
20260507205145 68 56 2.0 7.0 0.00 0.00 0.00 20 1023.1
20260507204642 68 70 4.0 6.0 0.00 0.00 0.00 20 1023.1
20260507204140 68 47 3.0 5.0 0.00 0.00 0.00 18 1023.1
20260507203637 68 49 3.0 5.0 0.00 0.00 0.00 19 1023.0
20260507203135 68 33 2.0 5.0 0.00 0.00 0.00 19 1023.1
20260507202653 68 36 3.0 7.0 0.00 0.00 0.00 19 1023.1
20260507202134 67 68 2.0 7.0 0.00 0.00 0.00 19 1023.1
20260507201632 68 340 3.0 7.0 0.00 0.00 0.00 19 1023.1
20260507201129 68 48 1.0 5.0 0.00 0.00 0.00 19 1023.2
20260507200647 67 84 2.0 6.0 0.00 0.00 0.00 19 1023.3
20260507200144 67 67 3.0 7.0 0.00 0.00 0.00 20 1023.4
20260507195644 67 53 4.0 7.0 0.00 0.00 0.00 19 1023.3
20260507195141 67 56 4.0 6.0 0.00 0.00 0.00 18 1023.4
20260507194639 68 50 3.0 5.0 0.00 0.00 0.00 20 1023.4
20260507194136 68 358 1.0 3.0 0.00 0.00 0.00 19 1023.3
20260507193634 68 79 1.0 5.0 0.00 0.00 0.00 20 1023.4
20260507193132 66 12 1.0 5.0 0.00 0.00 0.00 20 1023.6
20260507192630 66 96 2.0 8.0 0.00 0.00 0.00 19 1023.6
20260507192147 66 65 2.0 8.0 0.00 0.00 0.00 19 1023.7
20260507191645 66 47 4.0 7.0 0.00 0.00 0.00 19 1023.7
20260507191142 66 54 2.0 6.0 0.00 0.00 0.00 19 1023.7
20260507190643 66 58 3.0 9.0 0.00 0.00 0.00 20 1023.8
20260507190203 67 82 5.0 9.0 0.00 0.00 0.00 20 1024.0
20260507185700 66 349 1.0 5.0 0.00 0.00 0.00 20 1023.8
20260507185137 66 58 3.0 8.0 0.00 0.00 0.00 20 1024.0
20260507184635 66 43 4.0 8.0 0.00 0.00 0.00 20 1024.0
20260507184134 66 71 2.0 5.0 0.00 0.00 0.00 20 1024.0
20260507183631 65 25 3.0 5.0 0.00 0.00 0.00 20 1024.1
20260507183128 65 77 2.0 5.0 0.00 0.00 0.00 22 1024.0
20260507182646 65 108 3.0 6.0 0.00 0.00 0.00 21 1024.1
20260507182143 65 72 3.0 6.0 0.00 0.00 0.00 20 1024.0
20260507181701 66 106 2.0 4.0 0.00 0.00 0.00 21 1024.1
20260507181138 67 94 2.0 4.0 0.00 0.00 0.00 21 1024.2
20260507180636 66 46 1.0 3.0 0.00 0.00 0.00 21 1024.1
20260507180134 65 131 1.0 6.0 0.00 0.00 0.00 21 1024.2
20260507175654 64 67 3.0 6.0 0.00 0.00 0.00 22 1024.2
20260507175131 64 41 1.0 5.0 0.00 0.00 0.00 21 1024.2
20260507174709 64 64 2.0 7.0 0.00 0.00 0.00 21 1024.3
20260507174147 65 43 3.0 7.0 0.00 0.00 0.00 20 1024.3
20260507173644 65 336 2.0 4.0 0.00 0.00 0.00 23 1024.1
20260507173202 64 103 1.0 4.0 0.00 0.00 0.00 23 1024.1
20260507172640 64 352 2.0 6.0 0.00 0.00 0.00 23 1024.2
20260507172142 64 31 4.0 7.0 0.00 0.00 0.00 19 1024.2
20260507171639 65 41 3.0 7.0 0.00 0.00 0.00 22 1024.0
20260507171137 64 75 1.0 5.0 0.00 0.00 0.00 23 1024.1
20260507170635 64 60 3.0 5.0 0.00 0.00 0.00 24 1024.1
20260507170210 63 56 3.0 6.0 0.00 0.00 0.00 24 1024.1
20260507165646 63 41 2.0 6.0 0.00 0.00 0.00 26 1024.0
20260507165144 63 334 3.0 5.0 0.00 0.00 0.00 25 1024.0
20260507164642 63 66 1.0 4.0 0.00 0.00 0.00 28 1023.9
20260507164201 63 41 1.0 4.0 0.00 0.00 0.00 27 1024.0
20260507163638 63 41 2.0 4.0 0.00 0.00 0.00 27 1024.0
20260507163136 63 69 1.0 4.0 0.00 0.00 0.00 29 1024.0
20260507162634 63 57 2.0 4.0 0.00 0.00 0.00 27 1024.0
20260507162152 62 14 2.0 3.0 0.00 0.00 0.00 29 1024.0
20260507161649 62 90 1.0 3.0 0.00 0.00 0.00 27 1024.2
20260507161146 62 66 1.0 3.0 0.00 0.00 0.00 29 1024.1
20260507160643 62 46 2.0 4.0 0.00 0.00 0.00 30 1024.1
20260507160141 62 41 2.0 4.0 0.00 0.00 0.00 31 1024.1
20260507155641 61 54 1.0 4.0 0.00 0.00 0.00 31 1024.0
20260507155143 61 20 1.0 4.0 0.00 0.00 0.00 31 1024.1
20260507154641 61 56 1.0 4.0 0.00 0.00 0.00 29 1024.1
20260507154200 61 41 1.0 4.0 0.00 0.00 0.00 31 1024.0
20260507153657 61 44 1.0 4.0 0.00 0.00 0.00 31 1024.1
20260507153133 61 56 1.0 4.0 0.00 0.00 0.00 30 1024.1
20260507152631 61 72 1.0 2.0 0.00 0.00 0.00 31 1024.1
20260507152149 61 74 0.0 2.0 0.00 0.00 0.00 31 1024.0
20260507151646 61 125 0.0 2.0 0.00 0.00 0.00 31 1024.1
20260507151204 61 59 1.0 2.0 0.00 0.00 0.00 31 1024.0
20260507150641 61 26 0.0 1.0 0.00 0.00 0.00 33 1024.0
20260507150139 60 26 0.0 1.0 0.00 0.00 0.00 33 1023.9
20260507145639 60 27 0.0 1.0 0.00 0.00 0.00 34 1023.9
20260507145137 59 26 0.0 1.0 0.00 0.00 0.00 35 1024.0
20260507144634 58 26 0.0 1.0 0.00 0.00 0.00 36 1024.0
20260507144154 57 27 0.0 0.0 0.00 0.00 0.00 36 1023.9
20260507143630 56 250 0.0 1.0 0.00 0.00 0.00 37 1023.9
20260507143148 55 250 0.0 1.0 0.00 0.00 0.00 40 1023.9
20260507142646 55 250 0.0 0.0 0.00 0.00 0.00 39 1023.9
20260507142204 54 250 0.0 0.0 0.00 0.00 0.00 42 1023.9
20260507141641 53 250 0.0 0.0 0.00 0.00 0.00 41 1023.8
20260507141143 52 250 0.0 0.0 0.00 0.00 0.00 44 1023.7
20260507140641 52 250 0.0 0.0 0.00 0.00 0.00 43 1023.7
20260507140139 51 250 0.0 0.0 0.00 0.00 0.00 43 1023.6
20260507135659 49 250 0.0 0.0 0.00 0.00 0.00 46 1023.6
20260507135135 49 250 0.0 0.0 0.00 0.00 0.00 47 1023.6
20260507134633 49 250 0.0 0.0 0.00 0.00 0.00 45 1023.6
20260507134131 48 250 0.0 0.0 0.00 0.00 0.00 45 1023.5
20260507133709 48 250 0.0 0.0 0.00 0.00 0.00 46 1023.5
20260507133206 48 250 0.0 0.0 0.00 0.00 0.00 45 1023.5
20260507132703 47 250 0.0 0.0 0.00 0.00 0.00 46 1023.4
20260507132140 47 250 0.0 0.0 0.00 0.00 0.00 47 1023.3
20260507131637 47 250 0.0 0.0 0.00 0.00 0.00 46 1023.3
20260507131136 47 250 0.0 0.0 0.00 0.00 0.00 46 1023.3
20260507130633 47 250 0.0 0.0 0.00 0.00 0.00 45 1023.2
20260507130131 47 250 0.0 0.0 0.00 0.00 0.00 46 1023.2
20260507125711 46 250 0.0 0.0 0.00 0.00 0.00 47 1023.1
20260507124645 45 250 0.0 1.0 0.00 0.00 0.00 49 1023.1
20260507124143 45 250 0.0 1.0 0.00 0.00 0.00 49 1023.1
20260507123641 45 250 0.0 1.0 0.00 0.00 0.00 50 1023.0
20260507123142 45 250 0.0 1.0 0.00 0.00 0.00 49 1023.0
20260507122639 45 250 0.0 1.0 0.00 0.00 0.00 49 1023.0
20260507122138 44 250 0.0 1.0 0.00 0.00 0.00 49 1023.0
20260507121635 45 250 0.0 1.0 0.00 0.00 0.00 49 1023.1
20260507121132 45 250 0.0 0.0 0.00 0.00 0.00 48 1023.1
20260507120650 45 250 0.0 0.0 0.00 0.00 0.00 48 1023.1
20260507120148 45 250 0.0 1.0 0.00 0.00 0.00 48 1023.1
20260507115647 45 250 0.0 1.0 0.00 0.00 0.00 49 1023.1
20260507115144 44 250 0.0 1.0 0.00 0.00 0.00 49 1023.1
20260507114643 44 250 0.0 1.0 0.00 0.00 0.00 49 1023.1
20260507114141 45 250 0.0 1.0 0.00 0.00 0.00 49 1023.1
20260507113639 44 250 0.0 1.0 0.00 0.00 0.00 49 1023.2
20260507113136 44 250 0.0 1.0 0.00 0.00 0.00 50 1023.1
20260507112634 44 250 0.0 1.0 0.00 0.00 0.00 50 1023.1
20260507112136 44 250 0.0 1.0 0.00 0.00 0.00 50 1023.2
20260507111633 44 250 0.0 1.0 0.00 0.00 0.00 50 1023.2
20260507111150 44 250 0.0 1.0 0.00 0.00 0.00 51 1023.3
20260507110648 44 250 0.0 1.0 0.00 0.00 0.00 51 1023.3
20260507110146 44 250 0.0 1.0 0.00 0.00 0.00 51 1023.2
20260507105645 44 250 0.0 1.0 0.00 0.00 0.00 51 1023.3
20260507105141 44 250 0.0 1.0 0.00 0.00 0.00 51 1023.2
20260507104639 44 250 0.0 1.0 0.00 0.00 0.00 52 1023.2
20260507104138 43 250 0.0 1.0 0.00 0.00 0.00 53 1023.2
20260507103636 43 250 0.0 1.0 0.00 0.00 0.00 53 1023.2
20260507103134 44 250 0.0 1.0 0.00 0.00 0.00 53 1023.2
20260507102632 43 250 0.0 0.0 0.00 0.00 0.00 53 1023.3
20260507102150 43 250 0.0 0.0 0.00 0.00 0.00 53 1023.3
20260507101648 43 250 0.0 0.0 0.00 0.00 0.00 52 1023.3
20260507101146 43 250 0.0 0.0 0.00 0.00 0.00 52 1023.3
20260507100648 43 250 0.0 0.0 0.00 0.00 0.00 53 1023.3
20260507100146 43 250 0.0 0.0 0.00 0.00 0.00 51 1023.3
20260507095645 44 250 0.0 0.0 0.00 0.00 0.00 52 1023.3
20260507095143 44 250 0.0 1.0 0.00 0.00 0.00 48 1023.3
20260507094640 45 250 0.0 1.0 0.00 0.00 0.00 47 1023.2
20260507094139 45 250 0.0 1.0 0.00 0.00 0.00 47 1023.3
20260507093657 44 250 0.0 1.0 0.00 0.00 0.00 47 1023.3
20260507093134 44 243 0.0 1.0 0.00 0.00 0.00 47 1023.3
20260507092652 44 243 1.0 1.0 0.00 0.00 0.00 47 1023.3
20260507092149 44 210 0.0 1.0 0.00 0.00 0.00 47 1023.3
20260507091646 44 210 0.0 1.0 0.00 0.00 0.00 48 1023.3
20260507091144 43 205 0.0 0.0 0.00 0.00 0.00 48 1023.3
20260507090642 44 205 0.0 1.0 0.00 0.00 0.00 46 1023.3
20260507090140 44 205 0.0 1.0 0.00 0.00 0.00 46 1023.3
20260507085640 44 205 0.0 0.0 0.00 0.00 0.00 46 1023.3
20260507085142 45 205 0.0 0.0 0.00 0.00 0.00 45 1023.4
20260507084640 45 205 0.0 0.0 0.00 0.00 0.00 44 1023.4
20260507084139 46 205 0.0 0.0 0.00 0.00 0.00 44 1023.5
20260507083657 46 205 0.0 0.0 0.00 0.00 0.00 44 1023.4
20260507083133 45 205 0.0 0.0 0.00 0.00 0.00 44 1023.5
20260507082711 45 205 0.0 0.0 0.00 0.00 0.00 44 1023.5
20260507082148 45 205 0.0 0.0 0.00 0.00 0.00 44 1023.4
20260507081645 45 205 0.0 0.0 0.00 0.00 0.00 44 1023.4
20260507081203 45 205 0.0 0.0 0.00 0.00 0.00 44 1023.4
20260507080640 45 205 0.0 0.0 0.00 0.00 0.00 43 1023.5
20260507080138 46 205 0.0 0.0 0.00 0.00 0.00 43 1023.4
20260507075657 46 205 0.0 0.0 0.00 0.00 0.00 43 1023.5
20260507075133 46 205 0.0 0.0 0.00 0.00 0.00 43 1023.5
20260507074652 46 205 0.0 0.0 0.00 0.00 0.00 43 1023.5
20260507074150 46 205 0.0 0.0 0.00 0.00 0.00 42 1023.4
20260507073647 46 205 0.0 0.0 0.00 0.00 0.00 42 1023.4
20260507073144 46 205 0.0 0.0 0.00 0.00 0.00 42 1023.4
20260507072642 46 205 0.0 0.0 0.00 0.00 0.00 43 1023.4
20260507072140 46 205 0.0 0.0 0.00 0.00 0.00 43 1023.4
20260507071641 46 205 0.0 0.0 0.00 0.00 0.00 43 1023.5
20260507071159 46 205 0.0 0.0 0.00 0.00 0.00 43 1023.5
20260507070636 46 205 0.0 0.0 0.00 0.00 0.00 43 1023.5
20260507070133 46 205 0.0 0.0 0.00 0.00 0.00 43 1023.5
20260507065653 46 205 0.0 0.0 0.00 0.00 0.00 43 1023.5
20260507065150 46 205 0.0 0.0 0.00 0.00 0.00 43 1023.5
20260507064648 46 205 0.0 0.0 0.00 0.00 0.00 43 1023.5
20260507064146 46 205 0.0 0.0 0.00 0.00 0.00 43 1023.5
20260507063643 46 205 0.0 0.0 0.00 0.00 0.00 42 1023.5
20260507063141 46 205 0.0 0.0 0.00 0.00 0.00 42 1023.5
20260507062638 46 205 0.0 0.0 0.00 0.00 0.00 42 1023.4
20260507062137 46 205 0.0 0.0 0.00 0.00 0.00 42 1023.4
20260507061634 46 205 0.0 0.0 0.00 0.00 0.00 43 1023.3
20260507061213 47 205 0.0 0.0 0.00 0.00 0.00 42 1023.4
20260507060649 48 205 0.0 0.0 0.00 0.00 0.00 41 1023.4
20260507060147 48 205 0.0 0.0 0.00 0.00 0.00 39 1023.3
20260507055647 49 205 0.0 1.0 0.00 0.00 0.00 38 1023.3
20260507055148 48 205 0.0 1.0 0.00 0.00 0.00 40 1023.2
20260507054706 48 205 0.0 0.0 0.00 0.00 0.00 40 1023.2
20260507054142 48 205 0.0 0.0 0.00 0.00 0.00 42 1023.2
20260507053639 48 205 0.0 1.0 0.00 0.00 0.00 42 1023.1
20260507053137 48 205 0.0 1.0 0.00 0.00 0.00 42 1023.2
20260507052655 48 184 0.0 0.0 0.00 0.00 0.00 42 1023.1
20260507052152 48 184 0.0 0.0 0.00 0.00 0.00 42 1023.1
20260507051649 48 184 0.0 0.0 0.00 0.00 0.00 42 1023.3
20260507051146 48 184 0.0 0.0 0.00 0.00 0.00 43 1023.2
20260507050644 48 184 0.0 0.0 0.00 0.00 0.00 43 1023.2
20260507050141 48 184 0.0 0.0 0.00 0.00 0.00 43 1023.1
20260507045639 48 184 0.0 1.0 0.00 0.00 0.00 43 1023.1
20260507045136 47 184 0.0 1.0 0.00 0.00 0.00 44 1023.1
20260507044634 47 222 0.0 1.0 0.00 0.00 0.00 43 1023.2
20260507044213 47 222 0.0 1.0 0.00 0.00 0.00 43 1023.2